| time (UTC) | temp C | wind direction | speed KPH | gust KPH | rain 1hr cm | rain 24hr cm | rain mn cm | humidity % | barometer mb |
| 20260905173115 | 18 | 279 | 4.8 | 22.5 | 0.00 | 0.00 | 0.00 | 60 | 1024.8 |
| 20260905172542 | 18 | 264 | 1.6 | 22.5 | 0.00 | 0.00 | 0.00 | 61 | 1024.7 |
| 20260905172046 | 18 | 0 | 3.2 | 22.5 | 0.00 | 0.00 | 0.00 | 61 | 1024.6 |
| 20260905171605 | 18 | 0 | 3.2 | 22.5 | 0.00 | 0.00 | 0.00 | 61 | 1024.6 |
| 20260905171045 | 18 | 0 | 3.2 | 22.5 | 0.00 | 0.00 | 0.00 | 60 | 1024.5 |
| 20260905170542 | 18 | 0 | 0.0 | 24.1 | 0.00 | 0.00 | 0.00 | 60 | 1024.4 |
| 20260905170109 | 18 | 0 | 1.6 | 24.1 | 0.00 | 0.00 | 0.00 | 60 | 1024.4 |
| 20260905165544 | 18 | 205 | 4.8 | 30.6 | 0.00 | 0.15 | 0.00 | 60 | 1024.4 |
| 20260905165045 | 18 | 239 | 1.6 | 30.6 | 0.00 | 0.15 | 0.00 | 60 | 1024.3 |
| 20260905164605 | 18 | 0 | 11.3 | 30.6 | 0.00 | 0.15 | 0.00 | 59 | 1024.3 |
| 20260905164044 | 18 | 257 | 1.6 | 27.4 | 0.00 | 0.15 | 0.00 | 61 | 1024.2 |
| 20260905163542 | 18 | 0 | 3.2 | 32.2 | 0.00 | 0.15 | 0.00 | 61 | 1024.2 |
| 20260905163105 | 18 | 0 | 6.4 | 32.2 | 0.00 | 0.15 | 0.00 | 60 | 1024.1 |
| 20260905162545 | 18 | 0 | 3.2 | 30.6 | 0.00 | 0.15 | 0.00 | 60 | 1024.1 |
| 20260905162044 | 18 | 0 | 3.2 | 30.6 | 0.00 | 0.15 | 0.00 | 60 | 1024.0 |
| 20260905161602 | 18 | 247 | 0.0 | 22.5 | 0.00 | 0.15 | 0.00 | 61 | 1023.9 |
| 20260905161042 | 18 | 0 | 1.6 | 25.7 | 0.00 | 0.15 | 0.00 | 60 | 1023.8 |
| 20260905160542 | 18 | 232 | 3.2 | 27.4 | 0.00 | 0.15 | 0.00 | 60 | 1023.9 |
| 20260905160059 | 19 | 261 | 0.0 | 27.4 | 0.00 | 0.15 | 0.00 | 60 | 1023.8 |
| 20260905155545 | 18 | 0 | 0.0 | 27.4 | 0.00 | 0.30 | 0.00 | 61 | 1023.7 |
| 20260905155044 | 18 | 0 | 1.6 | 20.9 | 0.00 | 0.30 | 0.00 | 61 | 1023.7 |
| 20260905154606 | 18 | 0 | 1.6 | 20.9 | 0.00 | 0.30 | 0.00 | 60 | 1023.8 |
| 20260905154046 | 19 | 0 | 1.6 | 19.3 | 0.00 | 0.30 | 0.00 | 60 | 1023.6 |
| 20260905153544 | 19 | 0 | 1.6 | 19.3 | 0.00 | 0.30 | 0.00 | 60 | 1023.5 |
| 20260905153102 | 19 | 268 | 0.0 | 20.9 | 0.00 | 0.30 | 0.00 | 62 | 1023.5 |
| 20260905152545 | 18 | 0 | 1.6 | 20.9 | 0.00 | 0.30 | 0.00 | 62 | 1023.4 |
| 20260905152048 | 18 | 0 | 0.0 | 17.7 | 0.00 | 0.30 | 0.00 | 61 | 1023.3 |
| 20260905151607 | 19 | 252 | 0.0 | 25.7 | 0.00 | 0.30 | 0.00 | 61 | 1023.2 |
| 20260905151046 | 19 | 218 | 1.6 | 29.0 | 0.00 | 0.30 | 0.00 | 61 | 1023.1 |
| 20260905150545 | 20 | 233 | 6.4 | 29.0 | 0.00 | 0.30 | 0.00 | 59 | 1023.0 |
| 20260905150109 | 19 | 0 | 4.8 | 27.4 | 0.00 | 0.30 | 0.00 | 59 | 1023.0 |
| 20260905145544 | 19 | 231 | 8.0 | 27.4 | 0.00 | 0.30 | 0.00 | 60 | 1023.0 |
| 20260905145046 | 19 | 0 | 0.0 | 33.8 | 0.00 | 0.30 | 0.00 | 63 | 1023.1 |
| 20260905144603 | 19 | 229 | 4.8 | 33.8 | 0.00 | 0.30 | 0.00 | 63 | 1023.1 |
| 20260905144045 | 19 | 0 | 1.6 | 33.8 | 0.00 | 0.30 | 0.00 | 61 | 1022.9 |
| 20260905143547 | 19 | 0 | 0.0 | 32.2 | 0.00 | 0.30 | 0.00 | 61 | 1022.9 |
| 20260905143104 | 20 | 252 | 4.8 | 32.2 | 0.00 | 0.30 | 0.00 | 59 | 1022.9 |
| 20260905142549 | 20 | 269 | 8.0 | 27.4 | 0.00 | 0.30 | 0.00 | 60 | 1022.8 |
| 20260905142045 | 19 | 0 | 1.6 | 25.7 | 0.00 | 0.30 | 0.00 | 63 | 1022.9 |
| 20260905141603 | 19 | 0 | 4.8 | 27.4 | 0.00 | 0.30 | 0.00 | 62 | 1022.8 |
| 20260905141045 | 19 | 263 | 3.2 | 32.2 | 0.00 | 0.30 | 0.00 | 61 | 1022.8 |
| 20260905140546 | 19 | 240 | 0.0 | 32.2 | 0.00 | 0.30 | 0.00 | 61 | 1022.8 |
| 20260905140128 | 19 | 321 | 4.8 | 30.6 | 0.00 | 0.30 | 0.00 | 61 | 1022.8 |
| 20260905135545 | 19 | 0 | 1.6 | 20.9 | 0.00 | 0.30 | 0.00 | 61 | 1022.7 |
| 20260905135045 | 19 | 0 | 1.6 | 29.0 | 0.00 | 0.30 | 0.00 | 61 | 1022.7 |
| 20260905134627 | 20 | 0 | 4.8 | 29.0 | 0.00 | 0.30 | 0.00 | 62 | 1022.7 |
| 20260905134047 | 20 | 0 | 3.2 | 25.7 | 0.00 | 0.30 | 0.00 | 61 | 1022.5 |
| 20260905133544 | 19 | 0 | 3.2 | 29.0 | 0.00 | 0.30 | 0.00 | 63 | 1022.6 |
| 20260905133102 | 19 | 253 | 3.2 | 29.0 | 0.00 | 0.30 | 0.00 | 63 | 1022.6 |
| 20260905132544 | 19 | 276 | 3.2 | 20.9 | 0.00 | 0.30 | 0.00 | 64 | 1022.6 |
| 20260905132044 | 19 | 0 | 3.2 | 20.9 | 0.00 | 0.30 | 0.00 | 64 | 1022.5 |
| 20260905131615 | 19 | 0 | 1.6 | 24.1 | 0.00 | 0.30 | 0.00 | 65 | 1022.4 |
| 20260905131046 | 18 | 0 | 4.8 | 32.2 | 0.00 | 0.30 | 0.00 | 66 | 1022.5 |
| 20260905130546 | 18 | 242 | 4.8 | 41.8 | 0.00 | 0.30 | 0.00 | 64 | 1022.5 |
| 20260905130105 | 18 | 0 | 6.4 | 41.8 | 0.00 | 0.30 | 0.00 | 63 | 1022.4 |
| 20260905125546 | 18 | 238 | 8.0 | 29.0 | 0.00 | 0.30 | 0.00 | 63 | 1022.3 |
| 20260905125047 | 18 | 257 | 6.4 | 29.0 | 0.00 | 0.30 | 0.00 | 63 | 1022.2 |
| 20260905124606 | 19 | 0 | 3.2 | 25.7 | 0.00 | 0.30 | 0.00 | 64 | 1022.2 |
| 20260905124048 | 18 | 250 | 4.8 | 33.8 | 0.00 | 0.30 | 0.00 | 65 | 1022.3 |
| 20260905123545 | 18 | 269 | 4.8 | 33.8 | 0.00 | 0.30 | 0.00 | 67 | 1022.2 |
| 20260905123107 | 18 | 223 | 3.2 | 27.4 | 0.00 | 0.30 | 0.00 | 66 | 1022.2 |
| 20260905122544 | 18 | 230 | 4.8 | 27.4 | 0.00 | 0.30 | 0.00 | 66 | 1022.2 |
| 20260905122043 | 18 | 246 | 3.2 | 27.4 | 0.00 | 0.30 | 0.00 | 66 | 1022.1 |
| 20260905121604 | 18 | 246 | 9.7 | 38.6 | 0.00 | 0.30 | 0.00 | 66 | 1022.1 |
| 20260905121042 | 18 | 245 | 8.0 | 38.6 | 0.00 | 0.30 | 0.00 | 66 | 1022.2 |
| 20260905120545 | 18 | 280 | 11.3 | 32.2 | 0.00 | 0.30 | 0.00 | 67 | 1022.0 |
| 20260905120108 | 18 | 0 | 4.8 | 25.7 | 0.00 | 0.30 | 0.00 | 67 | 1022.1 |
| 20260905115545 | 18 | 244 | 4.8 | 24.1 | 0.00 | 0.30 | 0.00 | 65 | 1022.0 |
| 20260905115049 | 18 | 252 | 0.0 | 32.2 | 0.00 | 0.30 | 0.00 | 67 | 1021.9 |
| 20260905114558 | 18 | 0 | 6.4 | 33.8 | 0.00 | 0.30 | 0.00 | 67 | 1021.9 |
| 20260905114042 | 18 | 279 | 11.3 | 33.8 | 0.00 | 0.30 | 0.00 | 68 | 1022.0 |
| 20260905113546 | 18 | 223 | 9.7 | 29.0 | 0.00 | 0.30 | 0.00 | 67 | 1022.0 |
| 20260905113109 | 18 | 0 | 1.6 | 25.7 | 0.00 | 0.30 | 0.00 | 67 | 1021.9 |
| 20260905112542 | 18 | 246 | 3.2 | 38.6 | 0.00 | 0.30 | 0.00 | 67 | 1021.8 |
| 20260905112045 | 18 | 0 | 9.7 | 38.6 | 0.00 | 0.30 | 0.00 | 66 | 1021.6 |
| 20260905111607 | 18 | 231 | 11.3 | 37.0 | 0.00 | 0.30 | 0.00 | 69 | 1021.7 |
| 20260905111045 | 18 | 0 | 6.4 | 32.2 | 0.00 | 0.30 | 0.00 | 70 | 1021.6 |
| 20260905110545 | 19 | 238 | 4.8 | 32.2 | 0.00 | 0.30 | 0.00 | 67 | 1021.6 |
| 20260905110104 | 20 | 240 | 11.3 | 32.2 | 0.00 | 0.30 | 0.00 | 68 | 1021.6 |
| 20260905105542 | 18 | 231 | 1.6 | 30.6 | 0.00 | 0.30 | 0.00 | 70 | 1021.5 |
| 20260905105045 | 18 | 246 | 6.4 | 30.6 | 0.00 | 0.30 | 0.00 | 70 | 1021.6 |
| 20260905104617 | 18 | 207 | 6.4 | 30.6 | 0.00 | 0.30 | 0.00 | 69 | 1021.7 |
| 20260905104045 | 18 | 234 | 8.0 | 33.8 | 0.00 | 0.30 | 0.00 | 71 | 1021.5 |
| 20260905103542 | 18 | 221 | 8.0 | 35.4 | 0.00 | 0.30 | 0.00 | 70 | 1021.4 |
| 20260905103106 | 18 | 0 | 14.5 | 35.4 | 0.00 | 0.30 | 0.00 | 70 | 1021.5 |
| 20260905102542 | 18 | 230 | 1.6 | 27.4 | 0.00 | 0.30 | 0.00 | 71 | 1021.4 |
| 20260905102045 | 18 | 219 | 4.8 | 24.1 | 0.00 | 0.30 | 0.00 | 72 | 1021.5 |
| 20260905101610 | 18 | 232 | 3.2 | 27.4 | 0.00 | 0.30 | 0.00 | 73 | 1021.3 |
| 20260905101042 | 18 | 212 | 8.0 | 30.6 | 0.00 | 0.30 | 0.00 | 71 | 1021.4 |
| 20260905100545 | 18 | 0 | 14.5 | 32.2 | 0.00 | 0.30 | 0.00 | 71 | 1021.3 |
| 20260905100114 | 18 | 217 | 9.7 | 32.2 | 0.00 | 0.30 | 0.00 | 71 | 1021.3 |
| 20260905095545 | 18 | 0 | 8.0 | 32.2 | 0.00 | 0.30 | 0.00 | 73 | 1021.2 |
| 20260905095045 | 18 | 0 | 3.2 | 27.4 | 0.00 | 0.30 | 0.00 | 72 | 1021.2 |
| 20260905094555 | 18 | 219 | 6.4 | 30.6 | 0.00 | 0.30 | 0.00 | 73 | 1021.2 |
| 20260905094044 | 18 | 0 | 4.8 | 33.8 | 0.00 | 0.30 | 0.00 | 74 | 1021.1 |
| 20260905093545 | 18 | 226 | 9.7 | 33.8 | 0.00 | 0.30 | 0.00 | 73 | 1021.2 |
| 20260905093106 | 18 | 230 | 11.3 | 27.4 | 0.00 | 0.30 | 0.00 | 75 | 1021.1 |
| 20260905092550 | 17 | 244 | 11.3 | 25.7 | 0.00 | 0.30 | 0.00 | 76 | 1021.0 |
| 20260905092044 | 17 | 241 | 3.2 | 30.6 | 0.00 | 0.30 | 0.00 | 77 | 1021.1 |
| 20260905091603 | 17 | 225 | 4.8 | 30.6 | 0.00 | 0.30 | 0.00 | 75 | 1021.0 |
| 20260905091042 | 18 | 0 | 1.6 | 30.6 | 0.00 | 0.30 | 0.00 | 77 | 1021.0 |
| 20260905090545 | 17 | 205 | 4.8 | 22.5 | 0.00 | 0.30 | 0.00 | 77 | 1021.0 |
| 20260905090135 | 17 | 0 | 3.2 | 27.4 | 0.00 | 0.30 | 0.00 | 78 | 1020.9 |
| 20260905085546 | 17 | 0 | 3.2 | 27.4 | 0.00 | 0.30 | 0.00 | 80 | 1020.9 |
| 20260905085049 | 17 | 233 | 3.2 | 27.4 | 0.00 | 0.30 | 0.00 | 80 | 1021.0 |
| 20260905084602 | 17 | 0 | 4.8 | 24.1 | 0.00 | 0.30 | 0.00 | 79 | 1020.8 |
| 20260905084042 | 17 | 212 | 4.8 | 25.7 | 0.00 | 0.30 | 0.00 | 80 | 1020.8 |
| 20260905083544 | 17 | 225 | 4.8 | 25.7 | 0.00 | 0.30 | 0.00 | 81 | 1020.7 |
| 20260905083103 | 17 | 232 | 6.4 | 25.7 | 0.00 | 0.30 | 0.00 | 81 | 1020.6 |
| 20260905082544 | 17 | 0 | 4.8 | 20.9 | 0.00 | 0.30 | 0.00 | 80 | 1020.5 |
| 20260905082045 | 17 | 0 | 4.8 | 27.4 | 0.00 | 0.30 | 0.00 | 80 | 1020.5 |
| 20260905081603 | 17 | 0 | 0.0 | 27.4 | 0.00 | 0.30 | 0.00 | 80 | 1020.5 |
| 20260905081045 | 17 | 215 | 4.8 | 19.3 | 0.00 | 0.30 | 0.00 | 80 | 1020.5 |
| 20260905080545 | 17 | 0 | 4.8 | 19.3 | 0.00 | 0.30 | 0.00 | 82 | 1020.5 |
| 20260905075546 | 16 | 254 | 4.8 | 19.3 | 0.00 | 0.30 | 0.00 | 81 | 1020.4 |
| 20260905075043 | 17 | 0 | 3.2 | 19.3 | 0.00 | 0.30 | 0.00 | 80 | 1020.3 |
| 20260905074606 | 17 | 231 | 4.8 | 17.7 | 0.00 | 0.30 | 0.00 | 81 | 1020.3 |
| 20260905074046 | 17 | 242 | 1.6 | 16.1 | 0.00 | 0.30 | 0.00 | 82 | 1020.3 |
| 20260905073542 | 17 | 199 | 3.2 | 22.5 | 0.00 | 0.30 | 0.00 | 82 | 1020.1 |
| 20260905073102 | 16 | 234 | 0.0 | 22.5 | 0.00 | 0.30 | 0.00 | 84 | 1020.1 |
| 20260905072547 | 16 | 224 | 1.6 | 17.7 | 0.00 | 0.30 | 0.00 | 83 | 1020.0 |
| 20260905072042 | 16 | 236 | 0.0 | 16.1 | 0.00 | 0.30 | 0.00 | 85 | 1020.0 |
| 20260905071616 | 16 | 260 | 4.8 | 22.5 | 0.00 | 0.30 | 0.00 | 85 | 1020.0 |
| 20260905071042 | 16 | 221 | 1.6 | 22.5 | 0.00 | 0.30 | 0.00 | 85 | 1020.0 |
| 20260905070546 | 15 | 210 | 1.6 | 17.7 | 0.00 | 0.30 | 0.00 | 87 | 1019.9 |
| 20260905070108 | 15 | 247 | 3.2 | 17.7 | 0.00 | 0.30 | 0.00 | 87 | 1019.8 |
| 20260905065546 | 15 | 237 | 3.2 | 12.9 | 0.00 | 0.30 | 0.00 | 88 | 1019.8 |
| 20260905065042 | 15 | 0 | 0.0 | 12.9 | 0.00 | 0.30 | 0.00 | 88 | 1019.7 |
| 20260905064603 | 15 | 209 | 3.2 | 16.1 | 0.00 | 0.30 | 0.00 | 90 | 1019.7 |
| 20260905064046 | 15 | 0 | 1.6 | 22.5 | 0.00 | 0.30 | 0.00 | 89 | 1019.6 |
| 20260905063545 | 15 | 0 | 4.8 | 22.5 | 0.00 | 0.30 | 0.00 | 90 | 1019.6 |
| 20260905063058 | 14 | 227 | 0.0 | 19.3 | 0.00 | 0.30 | 0.00 | 91 | 1019.4 |
| 20260905062542 | 14 | 211 | 1.6 | 20.9 | 0.00 | 0.30 | 0.00 | 91 | 1019.4 |
| 20260905062045 | 14 | 221 | 8.0 | 20.9 | 0.00 | 0.30 | 0.00 | 92 | 1019.4 |
| 20260905061557 | 14 | 0 | 1.6 | 11.3 | 0.00 | 0.30 | 0.00 | 92 | 1019.3 |
| 20260905061042 | 14 | 225 | 0.0 | 12.9 | 0.00 | 0.30 | 0.00 | 92 | 1019.3 |
| 20260905060541 | 14 | 0 | 1.6 | 14.5 | 0.00 | 0.30 | 0.00 | 92 | 1019.3 |
| 20260905060105 | 13 | 227 | 0.0 | 14.5 | 0.00 | 0.30 | 0.00 | 93 | 1019.3 |
| 20260905055544 | 13 | 0 | 0.0 | 11.3 | 0.00 | 0.30 | 0.00 | 94 | 1019.3 |
| 20260905055044 | 13 | 0 | 0.0 | 11.3 | 0.00 | 0.30 | 0.00 | 94 | 1019.3 |
| 20260905054608 | 13 | 0 | 0.0 | 11.3 | 0.00 | 0.30 | 0.00 | 94 | 1019.2 |
| 20260905054045 | 13 | 0 | 0.0 | 11.3 | 0.00 | 0.30 | 0.00 | 94 | 1019.1 |
| 20260905053546 | 13 | 0 | 0.0 | 8.0 | 0.00 | 0.30 | 0.00 | 94 | 1019.1 |
| 20260905053101 | 13 | 0 | 0.0 | 8.0 | 0.00 | 0.30 | 0.00 | 94 | 1019.0 |
| 20260905052544 | 13 | 0 | 0.0 | 12.9 | 0.00 | 0.30 | 0.00 | 94 | 1019.0 |
| 20260905052045 | 13 | 0 | 0.0 | 12.9 | 0.00 | 0.30 | 0.00 | 94 | 1019.0 |
| 20260905051604 | 13 | 0 | 0.0 | 12.9 | 0.00 | 0.30 | 0.00 | 94 | 1018.9 |
| 20260905051042 | 13 | 0 | 0.0 | 0.0 | 0.00 | 0.30 | 0.00 | 95 | 1018.9 |
| 20260905050542 | 13 | 0 | 0.0 | 0.0 | 0.00 | 0.28 | 0.00 | 95 | 1018.8 |
| 20260905045542 | 13 | 0 | 0.0 | 0.0 | 0.00 | 0.28 | 0.00 | 95 | 1018.7 |
| 20260905045044 | 13 | 0 | 0.0 | 1.6 | 0.00 | 0.28 | 0.00 | 95 | 1018.7 |
| 20260905044604 | 13 | 0 | 0.0 | 1.6 | 0.00 | 0.28 | 0.00 | 95 | 1018.6 |
| 20260905044042 | 13 | 0 | 0.0 | 0.0 | 0.00 | 0.28 | 0.00 | 95 | 1018.6 |
| 20260905043545 | 13 | 0 | 0.0 | 9.7 | 0.00 | 0.28 | 0.00 | 95 | 1018.4 |
| 20260905043059 | 13 | 0 | 0.0 | 9.7 | 0.00 | 0.28 | 0.00 | 96 | 1018.3 |
| 20260905042545 | 13 | 0 | 0.0 | 8.0 | 0.00 | 0.28 | 0.00 | 96 | 1018.3 |
| 20260905042041 | 13 | 0 | 0.0 | 8.0 | 0.00 | 0.28 | 0.00 | 96 | 1018.2 |
| 20260905041607 | 13 | 0 | 0.0 | 6.4 | 0.00 | 0.28 | 0.00 | 96 | 1018.1 |
| 20260905041044 | 12 | 0 | 0.0 | 6.4 | 0.00 | 0.28 | 0.00 | 96 | 1018.0 |
| 20260905040541 | 12 | 0 | 0.0 | 6.4 | 0.00 | 0.28 | 0.00 | 96 | 1018.0 |
| 20260905040106 | 12 | 0 | 0.0 | 4.8 | 0.00 | 0.28 | 0.00 | 96 | 1018.0 |
| 20260905035547 | 12 | 0 | 0.0 | 4.8 | 0.00 | 0.28 | 0.00 | 96 | 1018.1 |
| 20260905035046 | 12 | 0 | 0.0 | 0.0 | 0.00 | 0.28 | 0.00 | 96 | 1018.0 |
| 20260905034616 | 12 | 0 | 0.0 | 8.0 | 0.00 | 0.28 | 0.00 | 96 | 1018.1 |
| 20260905034046 | 12 | 0 | 0.0 | 8.0 | 0.00 | 0.28 | 0.00 | 96 | 1018.1 |
| 20260905033545 | 12 | 0 | 0.0 | 8.0 | 0.00 | 0.28 | 0.00 | 96 | 1018.0 |
| 20260905033116 | 12 | 0 | 0.0 | 0.0 | 0.00 | 0.28 | 0.00 | 96 | 1018.0 |
| 20260905032547 | 12 | 0 | 0.0 | 0.0 | 0.00 | 0.28 | 0.00 | 96 | 1018.0 |
| 20260905032046 | 12 | 0 | 0.0 | 0.0 | 0.00 | 0.28 | 0.00 | 96 | 1018.0 |
| 20260905031614 | 12 | 0 | 0.0 | 0.0 | 0.00 | 0.28 | 0.00 | 96 | 1018.0 |
| 20260905031048 | 12 | 0 | 0.0 | 0.0 | 0.00 | 0.28 | 0.00 | 96 | 1018.1 |
| 20260905030546 | 12 | 0 | 0.0 | 0.0 | 0.00 | 0.28 | 0.00 | 96 | 1018.0 |
| 20260905030106 | 12 | 0 | 0.0 | 0.0 | 0.00 | 0.28 | 0.00 | 96 | 1018.0 |
| 20260905025545 | 12 | 0 | 0.0 | 0.0 | 0.00 | 0.28 | 0.00 | 96 | 1018.0 |
| 20260905025049 | 12 | 0 | 0.0 | 0.0 | 0.00 | 0.28 | 0.00 | 96 | 1018.0 |
| 20260905024605 | 12 | 0 | 0.0 | 0.0 | 0.00 | 0.28 | 0.00 | 96 | 1018.0 |
| 20260905024045 | 12 | 0 | 0.0 | 0.0 | 0.00 | 0.28 | 0.00 | 96 | 1018.0 |
| 20260905023548 | 12 | 0 | 0.0 | 0.0 | 0.00 | 0.28 | 0.00 | 96 | 1018.0 |
| 20260905023107 | 12 | 0 | 0.0 | 0.0 | 0.00 | 0.28 | 0.00 | 96 | 1017.9 |
| 20260905022550 | 12 | 0 | 0.0 | 0.0 | 0.00 | 0.28 | 0.00 | 96 | 1017.8 |
| 20260905022046 | 12 | 0 | 0.0 | 0.0 | 0.00 | 0.28 | 0.00 | 96 | 1017.9 |
| 20260905021604 | 12 | 0 | 0.0 | 0.0 | 0.00 | 0.28 | 0.00 | 96 | 1017.8 |
| 20260905021046 | 12 | 0 | 0.0 | 0.0 | 0.00 | 0.28 | 0.00 | 96 | 1017.8 |
| 20260905020546 | 12 | 0 | 0.0 | 0.0 | 0.00 | 0.28 | 0.00 | 96 | 1017.7 |
| 20260905020105 | 12 | 0 | 0.0 | 0.0 | 0.00 | 0.28 | 0.00 | 96 | 1017.8 |
| 20260905015546 | 12 | 0 | 0.0 | 0.0 | 0.00 | 0.28 | 0.00 | 96 | 1017.6 |
| 20260905015046 | 12 | 0 | 0.0 | 0.0 | 0.00 | 0.28 | 0.00 | 96 | 1017.6 |
| 20260905014614 | 12 | 0 | 0.0 | 0.0 | 0.00 | 0.28 | 0.00 | 96 | 1017.6 |
| 20260905014046 | 12 | 0 | 0.0 | 0.0 | 0.00 | 0.28 | 0.00 | 96 | 1017.5 |
| 20260905013547 | 12 | 0 | 0.0 | 0.0 | 0.00 | 0.28 | 0.00 | 96 | 1017.5 |
| 20260905013120 | 12 | 0 | 0.0 | 0.0 | 0.00 | 0.28 | 0.00 | 96 | 1017.6 |
| 20260905012546 | 12 | 0 | 0.0 | 0.0 | 0.00 | 0.28 | 0.00 | 96 | 1017.6 |
| 20260905012045 | 12 | 0 | 0.0 | 0.0 | 0.00 | 0.28 | 0.00 | 96 | 1017.6 |
| 20260905011601 | 12 | 0 | 0.0 | 0.0 | 0.00 | 0.28 | 0.00 | 96 | 1017.6 |
| 20260905011046 | 12 | 0 | 0.0 | 0.0 | 0.00 | 0.28 | 0.00 | 96 | 1017.6 |
| 20260905010547 | 12 | 0 | 0.0 | 0.0 | 0.00 | 0.28 | 0.00 | 96 | 1017.6 |
| 20260905010100 | 12 | 0 | 0.0 | 0.0 | 0.00 | 0.28 | 0.00 | 96 | 1017.6 |
| 20260905005546 | 12 | 0 | 0.0 | 0.0 | 0.00 | 0.28 | 0.00 | 96 | 1017.5 |
| 20260905005048 | 12 | 0 | 0.0 | 0.0 | 0.00 | 0.28 | 0.00 | 96 | 1017.6 |
| 20260905004711 | 12 | 0 | 0.0 | 0.0 | 0.00 | 0.28 | 0.00 | 96 | 1017.6 |
| 20260905004046 | 12 | 0 | 0.0 | 0.0 | 0.00 | 0.28 | 0.00 | 96 | 1017.6 |
| 20260905003546 | 13 | 0 | 0.0 | 0.0 | 0.00 | 0.28 | 0.00 | 96 | 1017.7 |
| 20260905003101 | 13 | 0 | 0.0 | 0.0 | 0.00 | 0.28 | 0.00 | 96 | 1017.7 |
| 20260905002545 | 13 | 0 | 0.0 | 0.0 | 0.00 | 0.28 | 0.00 | 96 | 1017.6 |
| 20260905002050 | 13 | 0 | 0.0 | 0.0 | 0.00 | 0.28 | 0.00 | 96 | 1017.6 |
| 20260905001609 | 13 | 0 | 0.0 | 0.0 | 0.00 | 0.28 | 0.00 | 96 | 1017.8 |
| 20260905001046 | 13 | 0 | 0.0 | 0.0 | 0.00 | 0.28 | 0.00 | 96 | 1017.6 |
| 20260905000546 | 13 | 0 | 0.0 | 0.0 | 0.00 | 0.28 | 0.00 | 96 | 1017.6 |
| 20260905000107 | 13 | 0 | 0.0 | 0.0 | 0.00 | 0.28 | 0.00 | 96 | 1017.6 |
| 20260904235546 | 13 | 0 | 0.0 | 0.0 | 0.00 | 0.28 | 0.00 | 96 | 1017.7 |
| 20260904235047 | 13 | 0 | 0.0 | 0.0 | 0.00 | 0.28 | 0.00 | 96 | 1017.5 |
| 20260904234604 | 13 | 0 | 0.0 | 0.0 | 0.00 | 0.28 | 0.00 | 96 | 1017.5 |
| 20260904234046 | 13 | 0 | 0.0 | 0.0 | 0.00 | 0.28 | 0.00 | 96 | 1017.6 |
| 20260904233546 | 13 | 0 | 0.0 | 0.0 | 0.00 | 0.28 | 0.00 | 95 | 1017.5 |
| 20260904233105 | 13 | 0 | 0.0 | 0.0 | 0.00 | 0.28 | 0.00 | 96 | 1017.4 |
| 20260904232546 | 13 | 0 | 0.0 | 0.0 | 0.00 | 0.28 | 0.00 | 95 | 1017.4 |
| 20260904232048 | 13 | 0 | 0.0 | 0.0 | 0.00 | 0.28 | 0.00 | 95 | 1017.4 |
| 20260904231606 | 13 | 0 | 0.0 | 0.0 | 0.00 | 0.28 | 0.00 | 95 | 1017.3 |
| 20260904231046 | 14 | 0 | 0.0 | 0.0 | 0.00 | 0.28 | 0.00 | 95 | 1017.3 |
| 20260904230546 | 14 | 0 | 0.0 | 0.0 | 0.00 | 0.28 | 0.00 | 95 | 1017.3 |
| 20260904230110 | 14 | 0 | 0.0 | 0.0 | 0.00 | 0.28 | 0.00 | 95 | 1017.3 |
| 20260904225547 | 14 | 0 | 0.0 | 0.0 | 0.00 | 0.28 | 0.00 | 95 | 1017.2 |
| 20260904225050 | 14 | 0 | 0.0 | 0.0 | 0.00 | 0.28 | 0.00 | 95 | 1017.2 |
| 20260904224605 | 15 | 0 | 0.0 | 0.0 | 0.00 | 0.28 | 0.00 | 95 | 1017.2 |
| 20260904224046 | 15 | 0 | 0.0 | 0.0 | 0.00 | 0.28 | 0.00 | 95 | 1017.2 |
| 20260904223545 | 15 | 0 | 0.0 | 0.0 | 0.00 | 0.28 | 0.00 | 95 | 1017.1 |
| 20260904223109 | 15 | 0 | 0.0 | 0.0 | 0.00 | 0.28 | 0.00 | 95 | 1017.1 |
| 20260904222546 | 15 | 0 | 0.0 | 0.0 | 0.00 | 0.28 | 0.00 | 95 | 1017.0 |
| 20260904222045 | 15 | 0 | 0.0 | 0.0 | 0.00 | 0.28 | 0.00 | 95 | 1017.0 |
| 20260904221606 | 15 | 0 | 0.0 | 1.6 | 0.00 | 0.28 | 0.00 | 95 | 1016.9 |
| 20260904221046 | 15 | 0 | 0.0 | 1.6 | 0.00 | 0.28 | 0.00 | 95 | 1016.8 |
| 20260904220547 | 15 | 0 | 0.0 | 1.6 | 0.00 | 0.28 | 0.00 | 95 | 1016.8 |
| 20260904220107 | 15 | 0 | 0.0 | 1.6 | 0.00 | 0.28 | 0.00 | 95 | 1016.8 |
| 20260904215546 | 15 | 0 | 0.0 | 1.6 | 0.00 | 0.28 | 0.28 | 95 | 1016.7 |
| 20260904215046 | 15 | 0 | 0.0 | 0.0 | 0.00 | 0.28 | 0.28 | 95 | 1016.6 |
| 20260904214613 | 15 | 0 | 0.0 | 0.0 | 0.00 | 0.28 | 0.28 | 95 | 1016.7 |
| 20260904214046 | 15 | 0 | 0.0 | 0.0 | 0.00 | 0.28 | 0.28 | 95 | 1016.5 |
| 20260904213546 | 15 | 0 | 0.0 | 0.0 | 0.00 | 0.28 | 0.28 | 95 | 1016.4 |
| 20260904213108 | 15 | 0 | 0.0 | 6.4 | 0.00 | 0.28 | 0.28 | 95 | 1016.5 |
| 20260904212546 | 15 | 0 | 0.0 | 6.4 | 0.00 | 0.28 | 0.28 | 95 | 1016.3 |
| 20260904212042 | 15 | 0 | 0.0 | 0.0 | 0.00 | 0.28 | 0.28 | 95 | 1016.4 |
| 20260904211602 | 15 | 0 | 0.0 | 9.7 | 0.00 | 0.28 | 0.28 | 95 | 1016.3 |
| 20260904211046 | 15 | 0 | 0.0 | 9.7 | 0.00 | 0.28 | 0.28 | 95 | 1016.2 |
| 20260904210550 | 15 | 0 | 0.0 | 9.7 | 0.00 | 0.28 | 0.28 | 95 | 1016.1 |
| 20260904210108 | 15 | 0 | 0.0 | 14.5 | 0.00 | 0.28 | 0.28 | 95 | 1016.1 |
| 20260904205549 | 15 | 0 | 1.6 | 14.5 | 0.00 | 0.28 | 0.28 | 95 | 1016.0 |
| 20260904205045 | 15 | 0 | 1.6 | 14.5 | 0.00 | 0.28 | 0.28 | 95 | 1016.1 |
| 20260904204609 | 15 | 0 | 0.0 | 14.5 | 0.00 | 0.28 | 0.28 | 95 | 1016.1 |
| 20260904204048 | 15 | 0 | 0.0 | 14.5 | 0.00 | 0.28 | 0.28 | 95 | 1016.0 |
| 20260904203546 | 15 | 0 | 0.0 | 14.5 | 0.00 | 0.28 | 0.28 | 95 | 1015.9 |
| 20260904203104 | 15 | 0 | 0.0 | 17.7 | 0.00 | 0.28 | 0.28 | 95 | 1015.8 |
| 20260904202545 | 16 | 0 | 1.6 | 17.7 | 0.00 | 0.28 | 0.28 | 95 | 1015.8 |
| 20260904202046 | 16 | 241 | 0.0 | 11.3 | 0.00 | 0.28 | 0.28 | 95 | 1015.9 |
| 20260904201601 | 16 | 0 | 0.0 | 12.9 | 0.00 | 0.28 | 0.28 | 95 | 1016.0 |
| 20260904201046 | 16 | 0 | 0.0 | 14.5 | 0.00 | 0.28 | 0.28 | 95 | 1016.0 |
| 20260904200547 | 15 | 0 | 0.0 | 14.5 | 0.00 | 0.28 | 0.28 | 95 | 1015.8 |
| 20260904200120 | 16 | 0 | 0.0 | 16.1 | 0.00 | 0.28 | 0.28 | 95 | 1015.9 |
| 20260904195549 | 16 | 0 | 0.0 | 16.1 | 0.00 | 0.28 | 0.28 | 95 | 1015.8 |
| 20260904195045 | 16 | 0 | 3.2 | 14.5 | 0.00 | 0.28 | 0.28 | 95 | 1015.9 |
| 20260904194609 | 16 | 0 | 0.0 | 11.3 | 0.00 | 0.28 | 0.28 | 95 | 1015.7 |
| 20260904194046 | 16 | 0 | 0.0 | 11.3 | 0.00 | 0.28 | 0.28 | 95 | 1015.6 |
| 20260904193545 | 16 | 0 | 0.0 | 11.3 | 0.00 | 0.28 | 0.28 | 96 | 1015.6 |
| 20260904193106 | 16 | 0 | 0.0 | 8.0 | 0.00 | 0.28 | 0.28 | 95 | 1015.7 |
| 20260904192546 | 16 | 0 | 0.0 | 6.4 | 0.00 | 0.28 | 0.28 | 96 | 1015.5 |
| 20260904192048 | 16 | 0 | 0.0 | 11.3 | 0.00 | 0.28 | 0.28 | 95 | 1015.4 |
| 20260904191605 | 16 | 0 | 0.0 | 11.3 | 0.00 | 0.28 | 0.28 | 95 | 1015.1 |
| 20260904191046 | 16 | 0 | 1.6 | 16.1 | 0.00 | 0.28 | 0.28 | 95 | 1015.1 |
| 20260904190546 | 16 | 0 | 0.0 | 16.1 | 0.00 | 0.28 | 0.28 | 95 | 1015.1 |
| 20260904190106 | 16 | 0 | 1.6 | 12.9 | 0.00 | 0.28 | 0.28 | 95 | 1015.1 |
| 20260904185546 | 16 | 211 | 0.0 | 12.9 | 0.00 | 0.28 | 0.28 | 95 | 1015.0 |
| 20260904185046 | 16 | 0 | 0.0 | 16.1 | 0.00 | 0.28 | 0.28 | 95 | 1015.0 |
| 20260904184614 | 16 | 234 | 1.6 | 16.1 | 0.00 | 0.28 | 0.28 | 95 | 1014.7 |
| 20260904184045 | 16 | 223 | 1.6 | 14.5 | 0.00 | 0.28 | 0.28 | 96 | 1014.6 |
| 20260904183549 | 16 | 239 | 1.6 | 14.5 | 0.00 | 0.28 | 0.28 | 95 | 1014.5 |
| 20260904183056 | 16 | 0 | 0.0 | 14.5 | 0.00 | 0.28 | 0.28 | 95 | 1014.4 |
| 20260904182545 | 16 | 239 | 0.0 | 14.5 | 0.00 | 0.28 | 0.28 | 95 | 1014.2 |
| 20260904182046 | 16 | 0 | 3.2 | 12.9 | 0.00 | 0.28 | 0.28 | 95 | 1014.2 |
| 20260904181613 | 16 | 0 | 0.0 | 14.5 | 0.00 | 0.28 | 0.28 | 95 | 1014.0 |
| 20260904181045 | 16 | 0 | 0.0 | 14.5 | 0.00 | 0.28 | 0.28 | 95 | 1014.0 |
| 20260904180547 | 16 | 236 | 0.0 | 12.9 | 0.00 | 0.28 | 0.28 | 95 | 1013.9 |
| 20260904180100 | 16 | 0 | 0.0 | 17.7 | 0.00 | 0.28 | 0.28 | 95 | 1013.7 |
| 20260904175545 | 16 | 0 | 3.2 | 17.7 | 0.00 | 0.28 | 0.28 | 95 | 1013.8 |
| 20260904175045 | 16 | 0 | 3.2 | 17.7 | 0.00 | 0.28 | 0.28 | 95 | 1013.8 |
| 20260904174604 | 16 | 238 | 0.0 | 16.1 | 0.00 | 0.28 | 0.28 | 95 | 1013.8 |
| 20260904174046 | 16 | 0 | 1.6 | 16.1 | 0.00 | 0.28 | 0.28 | 95 | 1013.7 |
| 20260904173545 | 16 | 0 | 3.2 | 14.5 | 0.00 | 0.28 | 0.28 | 95 | 1013.6 |